Time,TemperatureF,DewpointF,PressureIn,WindDirection,WindDirectionDegrees,WindSpeedMPH,WindSpeedGustMPH,Humidity,HourlyPrecipIn,Conditions,Clouds,dailyrainin,SoftwareType,DateUTC
2013-09-23 00:01:00,52.9,41.8,29.82,North,-999,-999.0,-999.0,66,-99.99,,,-99.99,open2300-1.11,2013-09-23 04:01:00,
2013-09-23 00:02:00,52.9,41.8,29.82,North,-999,-999.0,-999.0,66,-99.99,,,-99.99,open2300-1.11,2013-09-23 04:02:00,
2013-09-23 00:04:00,52.9,41.8,29.82,North,-999,-999.0,-999.0,66,-99.99,,,-99.99,open2300-1.11,2013-09-23 04:04:00,
2013-09-23 00:05:00,52.9,41.8,29.82,North,-999,-999.0,-999.0,66,-99.99,,,-99.99,open2300-1.11,2013-09-23 04:05:00,
2013-09-23 00:10:00,52.9,41.8,29.82,North,-999,-999.0,-999.0,66,-99.99,,,-99.99,open2300-1.11,2013-09-23 04:10:00,
2013-09-23 00:13:00,52.9,41.8,29.82,North,-999,-999.0,-999.0,66,-99.99,,,-99.99,open2300-1.11,2013-09-23 04:13:00,
2013-09-23 00:18:00,52.7,41.6,29.82,North,-999,-999.0,-999.0,66,-99.99,,,-99.99,open2300-1.11,2013-09-23 04:18:00,
2013-09-23 00:23:00,52.9,41.4,29.82,North,-999,-999.0,-999.0,65,-99.99,,,-99.99,open2300-1.11,2013-09-23 04:23:00,
2013-09-23 00:28:00,52.7,41.6,29.82,North,-999,-999.0,-999.0,66,-99.99,,,-99.99,open2300-1.11,2013-09-23 04:28:00,
2013-09-23 00:34:00,52.7,41.6,29.82,North,-999,-999.0,-999.0,66,-99.99,,,-99.99,open2300-1.11,2013-09-23 04:34:00,
2013-09-23 00:39:00,52.7,41.6,29.83,North,-999,-999.0,-999.0,66,-99.99,,,-99.99,open2300-1.11,2013-09-23 04:39:00,
2013-09-23 00:44:00,52.5,41.5,29.82,North,-999,-999.0,-999.0,66,-99.99,,,-99.99,open2300-1.11,2013-09-23 04:44:00,
2013-09-23 00:49:00,52.7,41.2,29.83,North,-999,-999.0,-999.0,65,-99.99,,,-99.99,open2300-1.11,2013-09-23 04:49:00,
2013-09-23 00:55:00,52.7,41.2,29.83,North,-999,-999.0,-999.0,65,-99.99,,,-99.99,open2300-1.11,2013-09-23 04:55:00,
2013-09-23 01:00:00,52.7,41.2,29.82,North,-999,-999.0,-999.0,65,-99.99,,,-99.99,open2300-1.11,2013-09-23 05:00:00,
2013-09-23 01:05:00,52.7,41.2,29.82,North,-999,-999.0,-999.0,65,-99.99,,,-99.99,open2300-1.11,2013-09-23 05:05:00,
2013-09-23 01:10:00,52.9,41.8,29.83,North,-999,-999.0,-999.0,66,-99.99,,,-99.99,open2300-1.11,2013-09-23 05:10:00,
2013-09-23 01:15:00,52.7,41.2,29.83,North,-999,-999.0,-999.0,65,-99.99,,,-99.99,open2300-1.11,2013-09-23 05:15:00,
2013-09-23 01:21:00,52.7,41.6,29.83,North,-999,-999.0,-999.0,66,-99.99,,,-99.99,open2300-1.11,2013-09-23 05:21:00,
2013-09-23 01:26:00,52.7,41.6,29.83,North,-999,-999.0,-999.0,66,-99.99,,,-99.99,open2300-1.11,2013-09-23 05:26:00,
2013-09-23 01:31:00,52.5,41.5,29.83,North,-999,-999.0,-999.0,66,-99.99,,,-99.99,open2300-1.11,2013-09-23 05:31:00,
2013-09-23 01:36:00,52.5,41.5,29.83,North,-999,-999.0,-999.0,66,-99.99,,,-99.99,open2300-1.11,2013-09-23 05:36:00,
2013-09-23 01:42:00,52.3,41.7,29.84,North,-999,-999.0,-999.0,67,-99.99,,,-99.99,open2300-1.11,2013-09-23 05:42:00,
2013-09-23 01:47:00,52.3,41.7,29.84,North,-999,-999.0,-999.0,67,-99.99,,,-99.99,open2300-1.11,2013-09-23 05:47:00,
2013-09-23 01:52:00,52.2,41.1,29.84,North,-999,-999.0,-999.0,66,-99.99,,,-99.99,open2300-1.11,2013-09-23 05:52:00,
2013-09-23 01:57:00,51.6,41.0,29.84,North,-999,-999.0,-999.0,67,-99.99,,,-99.99,open2300-1.11,2013-09-23 05:57:00,
2013-09-23 02:03:00,51.1,40.5,29.84,North,-999,-999.0,-999.0,67,-99.99,,,-99.99,open2300-1.11,2013-09-23 06:03:00,
2013-09-23 02:08:00,50.5,40.8,29.84,North,-999,-999.0,-999.0,69,-99.99,,,-99.99,open2300-1.11,2013-09-23 06:08:00,
2013-09-23 02:13:00,50.0,40.2,29.84,North,-999,-999.0,-999.0,69,-99.99,,,-99.99,open2300-1.11,2013-09-23 06:13:00,
2013-09-23 02:18:00,49.3,40.3,29.84,North,-999,-999.0,-999.0,71,-99.99,,,-99.99,open2300-1.11,2013-09-23 06:18:00,
2013-09-23 02:24:00,49.1,40.1,29.83,North,-999,-999.0,-999.0,71,-99.99,,,-99.99,open2300-1.11,2013-09-23 06:24:00,
2013-09-23 02:29:00,48.6,39.9,29.83,North,-999,-999.0,-999.0,72,-99.99,,,-99.99,open2300-1.11,2013-09-23 06:29:00,
2013-09-23 02:34:00,48.0,39.7,29.83,North,-999,-999.0,-999.0,73,-99.99,,,-99.99,open2300-1.11,2013-09-23 06:34:00,
2013-09-23 02:39:00,48.0,40.0,29.83,North,-999,-999.0,-999.0,74,-99.99,,,-99.99,open2300-1.11,2013-09-23 06:39:00,
2013-09-23 02:45:00,47.5,39.9,29.84,North,-999,-999.0,-999.0,75,-99.99,,,-99.99,open2300-1.11,2013-09-23 06:45:00,
2013-09-23 02:50:00,47.5,40.2,29.84,North,-999,-999.0,-999.0,76,-99.99,,,-99.99,open2300-1.11,2013-09-23 06:50:00,
2013-09-23 02:55:00,47.5,40.6,29.84,North,-999,-999.0,-999.0,77,-99.99,,,-99.99,open2300-1.11,2013-09-23 06:55:00,
2013-09-23 03:00:00,47.5,40.6,29.84,North,-999,-999.0,-999.0,77,-99.99,,,-99.99,open2300-1.11,2013-09-23 07:00:00,
2013-09-23 03:06:00,47.5,40.9,29.83,North,-999,-999.0,-999.0,78,-99.99,,,-99.99,open2300-1.11,2013-09-23 07:06:00,
2013-09-23 03:11:00,47.5,41.3,29.84,North,-999,-999.0,-999.0,79,-99.99,,,-99.99,open2300-1.11,2013-09-23 07:11:00,
2013-09-23 03:16:00,47.7,41.4,29.84,North,-999,-999.0,-999.0,79,-99.99,,,-99.99,open2300-1.11,2013-09-23 07:16:00,
2013-09-23 03:21:00,47.8,41.6,29.84,North,-999,-999.0,-999.0,79,-99.99,,,-99.99,open2300-1.11,2013-09-23 07:21:00,
2013-09-23 03:27:00,48.0,41.8,29.85,North,-999,-999.0,-999.0,79,-99.99,,,-99.99,open2300-1.11,2013-09-23 07:27:00,
2013-09-23 03:32:00,48.4,42.1,29.85,North,-999,-999.0,-999.0,79,-99.99,,,-99.99,open2300-1.11,2013-09-23 07:32:00,
2013-09-23 03:37:00,48.6,42.3,29.85,North,-999,-999.0,-999.0,79,-99.99,,,-99.99,open2300-1.11,2013-09-23 07:37:00,
2013-09-23 03:42:00,48.9,42.6,29.85,North,-999,-999.0,-999.0,79,-99.99,,,-99.99,open2300-1.11,2013-09-23 07:42:00,
2013-09-23 03:48:00,49.1,42.8,29.85,North,-999,-999.0,-999.0,79,-99.99,,,-99.99,open2300-1.11,2013-09-23 07:48:00,
2013-09-23 03:53:00,49.3,43.0,29.85,North,-999,-999.0,-999.0,79,-99.99,,,-99.99,open2300-1.11,2013-09-23 07:53:00,
2013-09-23 03:58:00,49.3,42.7,29.85,North,-999,-999.0,-999.0,78,-99.99,,,-99.99,open2300-1.11,2013-09-23 07:58:00,
2013-09-23 04:03:00,49.5,42.8,29.85,North,-999,-999.0,-999.0,78,-99.99,,,-99.99,open2300-1.11,2013-09-23 08:03:00,
2013-09-23 04:09:00,49.1,42.1,29.85,North,-999,-999.0,-999.0,77,-99.99,,,-99.99,open2300-1.11,2013-09-23 08:09:00,
2013-09-23 04:14:00,48.7,41.8,29.85,North,-999,-999.0,-999.0,77,-99.99,,,-99.99,open2300-1.11,2013-09-23 08:14:00,
2013-09-23 04:19:00,48.2,41.2,29.85,North,-999,-999.0,-999.0,77,-99.99,,,-99.99,open2300-1.11,2013-09-23 08:19:00,
2013-09-23 04:24:00,48.0,41.1,29.85,North,-999,-999.0,-999.0,77,-99.99,,,-99.99,open2300-1.11,2013-09-23 08:24:00,
2013-09-23 04:29:00,47.3,40.8,29.86,North,-999,-999.0,-999.0,78,-99.99,,,-99.99,open2300-1.11,2013-09-23 08:29:00,
2013-09-23 04:35:00,47.1,40.6,29.86,North,-999,-999.0,-999.0,78,-99.99,,,-99.99,open2300-1.11,2013-09-23 08:35:00,
2013-09-23 04:40:00,46.8,40.6,29.86,North,-999,-999.0,-999.0,79,-99.99,,,-99.99,open2300-1.11,2013-09-23 08:40:00,
2013-09-23 04:45:00,46.6,40.5,29.86,North,-999,-999.0,-999.0,79,-99.99,,,-99.99,open2300-1.11,2013-09-23 08:45:00,
2013-09-23 04:50:00,46.2,40.5,29.86,North,-999,-999.0,-999.0,80,-99.99,,,-99.99,open2300-1.11,2013-09-23 08:50:00,
2013-09-23 04:56:00,46.0,40.3,29.86,North,-999,-999.0,-999.0,80,-99.99,,,-99.99,open2300-1.11,2013-09-23 08:56:00,
2013-09-23 05:01:00,45.7,39.9,29.86,North,-999,-999.0,-999.0,80,-99.99,,,-99.99,open2300-1.11,2013-09-23 09:01:00,
2013-09-23 05:06:00,45.5,40.0,29.86,North,-999,-999.0,-999.0,81,-99.99,,,-99.99,open2300-1.11,2013-09-23 09:06:00,
2013-09-23 05:11:00,45.3,40.2,29.86,North,-999,-999.0,-999.0,82,-99.99,,,-99.99,open2300-1.11,2013-09-23 09:11:00,
2013-09-23 05:17:00,45.1,40.0,29.86,North,-999,-999.0,-999.0,82,-99.99,,,-99.99,open2300-1.11,2013-09-23 09:17:00,
2013-09-23 05:22:00,45.0,40.1,29.87,North,-999,-999.0,-999.0,83,-99.99,,,-99.99,open2300-1.11,2013-09-23 09:22:00,
2013-09-23 05:27:00,44.8,39.9,29.87,North,-999,-999.0,-999.0,83,-99.99,,,-99.99,open2300-1.11,2013-09-23 09:27:00,
2013-09-23 05:33:00,44.8,39.9,29.87,North,-999,-999.0,-999.0,83,-99.99,,,-99.99,open2300-1.11,2013-09-23 09:33:00,
2013-09-23 05:38:00,44.4,39.9,29.87,North,-999,-999.0,-999.0,84,-99.99,,,-99.99,open2300-1.11,2013-09-23 09:38:00,
2013-09-23 05:43:00,44.4,39.9,29.87,North,-999,-999.0,-999.0,84,-99.99,,,-99.99,open2300-1.11,2013-09-23 09:43:00,
2013-09-23 05:48:00,44.4,40.2,29.87,North,-999,-999.0,-999.0,85,-99.99,,,-99.99,open2300-1.11,2013-09-23 09:48:00,
2013-09-23 05:53:00,44.6,40.4,29.87,North,-999,-999.0,-999.0,85,-99.99,,,-99.99,open2300-1.11,2013-09-23 09:53:00,
2013-09-23 05:59:00,44.8,40.5,29.88,North,-999,-999.0,-999.0,85,-99.99,,,-99.99,open2300-1.11,2013-09-23 09:59:00,
2013-09-23 06:04:00,45.0,40.7,29.88,North,-999,-999.0,-999.0,85,-99.99,,,-99.99,open2300-1.11,2013-09-23 10:04:00,
2013-09-23 06:09:00,45.0,40.7,29.88,North,-999,-999.0,-999.0,85,-99.99,,,-99.99,open2300-1.11,2013-09-23 10:09:00,
2013-09-23 06:14:00,45.1,41.2,29.88,North,-999,-999.0,-999.0,86,-99.99,,,-99.99,open2300-1.11,2013-09-23 10:14:00,
2013-09-23 06:19:00,45.1,41.2,29.88,North,-999,-999.0,-999.0,86,-99.99,,,-99.99,open2300-1.11,2013-09-23 10:19:00,
2013-09-23 06:25:00,45.0,41.0,29.89,North,-999,-999.0,-999.0,86,-99.99,,,-99.99,open2300-1.11,2013-09-23 10:25:00,
2013-09-23 06:30:00,45.0,41.0,29.89,North,-999,-999.0,-999.0,86,-99.99,,,-99.99,open2300-1.11,2013-09-23 10:30:00,
2013-09-23 06:35:00,45.0,41.0,29.89,North,-999,-999.0,-999.0,86,-99.99,,,-99.99,open2300-1.11,2013-09-23 10:35:00,
2013-09-23 06:40:00,45.1,40.9,29.89,North,-999,-999.0,-999.0,85,-99.99,,,-99.99,open2300-1.11,2013-09-23 10:40:00,
2013-09-23 06:46:00,45.3,41.1,29.90,North,-999,-999.0,-999.0,85,-99.99,,,-99.99,open2300-1.11,2013-09-23 10:46:00,
2013-09-23 06:51:00,45.3,41.1,29.90,North,-999,-999.0,-999.0,85,-99.99,,,-99.99,open2300-1.11,2013-09-23 10:51:00,
2013-09-23 06:57:00,45.3,41.1,29.90,North,-999,-999.0,-999.0,85,-99.99,,,-99.99,open2300-1.11,2013-09-23 10:57:00,
2013-09-23 07:02:00,45.1,40.9,29.90,North,-999,-999.0,-999.0,85,-99.99,,,-99.99,open2300-1.11,2013-09-23 11:02:00,
2013-09-23 07:07:00,45.1,40.9,29.90,North,-999,-999.0,-999.0,85,-99.99,,,-99.99,open2300-1.11,2013-09-23 11:07:00,
2013-09-23 07:12:00,45.0,40.7,29.90,North,-999,-999.0,-999.0,85,-99.99,,,-99.99,open2300-1.11,2013-09-23 11:12:00,
2013-09-23 07:18:00,45.0,40.7,29.91,North,-999,-999.0,-999.0,85,-99.99,,,-99.99,open2300-1.11,2013-09-23 11:18:00,
2013-09-23 07:23:00,45.1,40.9,29.91,North,-999,-999.0,-999.0,85,-99.99,,,-99.99,open2300-1.11,2013-09-23 11:23:00,
2013-09-23 07:28:00,45.1,40.9,29.91,North,-999,-999.0,-999.0,85,-99.99,,,-99.99,open2300-1.11,2013-09-23 11:28:00,
2013-09-23 07:34:00,45.1,40.9,29.90,North,-999,-999.0,-999.0,85,-99.99,,,-99.99,open2300-1.11,2013-09-23 11:34:00,
2013-09-23 07:39:00,45.3,41.1,29.91,North,-999,-999.0,-999.0,85,-99.99,,,-99.99,open2300-1.11,2013-09-23 11:39:00,
2013-09-23 07:44:00,45.7,41.8,29.91,North,-999,-999.0,-999.0,86,-99.99,,,-99.99,open2300-1.11,2013-09-23 11:44:00,
2013-09-23 07:49:00,46.2,42.0,29.91,North,-999,-999.0,-999.0,85,-99.99,,,-99.99,open2300-1.11,2013-09-23 11:49:00,
2013-09-23 07:55:00,46.8,42.5,29.91,North,-999,-999.0,-999.0,85,-99.99,,,-99.99,open2300-1.11,2013-09-23 11:55:00,
2013-09-23 08:00:00,47.3,42.7,29.91,North,-999,-999.0,-999.0,84,-99.99,,,-99.99,open2300-1.11,2013-09-23 12:00:00,
2013-09-23 08:05:00,47.8,43.2,29.92,North,-999,-999.0,-999.0,84,-99.99,,,-99.99,open2300-1.11,2013-09-23 12:05:00,
2013-09-23 08:11:00,48.6,43.6,29.91,North,-999,-999.0,-999.0,83,-99.99,,,-99.99,open2300-1.11,2013-09-23 12:11:00,
2013-09-23 08:16:00,49.3,44.3,29.92,North,-999,-999.0,-999.0,83,-99.99,,,-99.99,open2300-1.11,2013-09-23 12:16:00,
2013-09-23 08:21:00,54.0,48.3,29.91,North,-999,-999.0,-999.0,81,-99.99,,,-99.99,open2300-1.11,2013-09-23 12:21:00,
2013-09-23 08:26:00,58.1,49.8,29.92,North,-999,-999.0,-999.0,74,-99.99,,,-99.99,open2300-1.11,2013-09-23 12:26:00,
2013-09-23 08:32:00,63.7,50.4,29.92,North,-999,-999.0,-999.0,62,-99.99,,,-99.99,open2300-1.11,2013-09-23 12:32:00,
2013-09-23 08:37:00,66.2,50.5,29.92,North,-999,-999.0,-999.0,57,-99.99,,,-99.99,open2300-1.11,2013-09-23 12:37:00,
2013-09-23 08:42:00,67.3,49.5,29.93,North,-999,-999.0,-999.0,53,-99.99,,,-99.99,open2300-1.11,2013-09-23 12:42:00,
2013-09-23 08:47:00,67.3,49.1,29.93,North,-999,-999.0,-999.0,52,-99.99,,,-99.99,open2300-1.11,2013-09-23 12:47:00,
2013-09-23 08:53:00,66.9,48.2,29.93,North,-999,-999.0,-999.0,51,-99.99,,,-99.99,open2300-1.11,2013-09-23 12:53:00,
2013-09-23 08:58:00,65.7,46.6,29.92,North,-999,-999.0,-999.0,50,-99.99,,,-99.99,open2300-1.11,2013-09-23 12:58:00,
2013-09-23 09:03:00,63.7,45.2,29.92,North,-999,-999.0,-999.0,51,-99.99,,,-99.99,open2300-1.11,2013-09-23 13:03:00,
2013-09-23 09:08:00,61.2,43.9,29.92,North,-999,-999.0,-999.0,53,-99.99,,,-99.99,open2300-1.11,2013-09-23 13:08:00,
2013-09-23 09:14:00,60.1,43.3,29.92,North,-999,-999.0,-999.0,54,-99.99,,,-99.99,open2300-1.11,2013-09-23 13:14:00,
2013-09-23 09:19:00,58.8,43.1,29.92,North,-999,-999.0,-999.0,56,-99.99,,,-99.99,open2300-1.11,2013-09-23 13:19:00,
2013-09-23 09:24:00,58.3,43.1,29.92,North,-999,-999.0,-999.0,57,-99.99,,,-99.99,open2300-1.11,2013-09-23 13:24:00,
2013-09-23 09:29:00,58.1,42.9,29.93,North,-999,-999.0,-999.0,57,-99.99,,,-99.99,open2300-1.11,2013-09-23 13:29:00,
2013-09-23 09:35:00,58.5,43.2,29.92,North,-999,-999.0,-999.0,57,-99.99,,,-99.99,open2300-1.11,2013-09-23 13:35:00,
2013-09-23 09:40:00,62.2,47.3,29.92,North,-999,-999.0,-999.0,58,-99.99,,,-99.99,open2300-1.11,2013-09-23 13:40:00,
2013-09-23 09:45:00,65.1,46.0,29.92,North,-999,-999.0,-999.0,50,-99.99,,,-99.99,open2300-1.11,2013-09-23 13:45:00,
2013-09-23 09:50:00,67.8,46.8,29.92,North,-999,-999.0,-999.0,47,-99.99,,,-99.99,open2300-1.11,2013-09-23 13:50:00,
2013-09-23 09:56:00,69.6,47.2,29.92,North,-999,-999.0,-999.0,45,-99.99,,,-99.99,open2300-1.11,2013-09-23 13:56:00,
2013-09-23 10:01:00,71.8,48.6,29.92,North,-999,-999.0,-999.0,44,-99.99,,,-99.99,open2300-1.11,2013-09-23 14:01:00,
2013-09-23 10:06:00,74.3,48.5,29.92,North,-999,-999.0,-999.0,40,-99.99,,,-99.99,open2300-1.11,2013-09-23 14:06:00,
2013-09-23 10:11:00,74.5,47.9,29.92,North,-999,-999.0,-999.0,39,-99.99,,,-99.99,open2300-1.11,2013-09-23 14:11:00,
2013-09-23 10:17:00,74.5,47.1,29.92,North,-999,-999.0,-999.0,38,-99.99,,,-99.99,open2300-1.11,2013-09-23 14:17:00,
2013-09-23 10:22:00,74.3,47.0,29.92,North,-999,-999.0,-999.0,38,-99.99,,,-99.99,open2300-1.11,2013-09-23 14:22:00,
2013-09-23 10:27:00,74.8,48.2,29.92,North,-999,-999.0,-999.0,39,-99.99,,,-99.99,open2300-1.11,2013-09-23 14:27:00,
2013-09-23 10:32:00,75.9,48.4,29.92,North,-999,-999.0,-999.0,38,-99.99,,,-99.99,open2300-1.11,2013-09-23 14:32:00,
2013-09-23 10:38:00,76.5,48.9,29.92,North,-999,-999.0,-999.0,38,-99.99,,,-99.99,open2300-1.11,2013-09-23 14:38:00,
2013-09-23 10:43:00,76.3,47.2,29.91,North,-999,-999.0,-999.0,36,-99.99,,,-99.99,open2300-1.11,2013-09-23 14:43:00,
2013-09-23 10:48:00,74.1,46.0,29.91,North,-999,-999.0,-999.0,37,-99.99,,,-99.99,open2300-1.11,2013-09-23 14:48:00,
2013-09-23 10:53:00,69.8,44.4,29.91,North,-999,-999.0,-999.0,40,-99.99,,,-99.99,open2300-1.11,2013-09-23 14:53:00,
2013-09-23 10:59:00,67.1,43.2,29.91,North,-999,-999.0,-999.0,42,-99.99,,,-99.99,open2300-1.11,2013-09-23 14:59:00,
2013-09-23 11:04:00,64.6,42.6,29.91,North,-999,-999.0,-999.0,45,-99.99,,,-99.99,open2300-1.11,2013-09-23 15:04:00,
2013-09-23 11:09:00,63.3,42.0,29.91,North,-999,-999.0,-999.0,46,-99.99,,,-99.99,open2300-1.11,2013-09-23 15:09:00,
2013-09-23 11:14:00,62.1,42.6,29.91,North,-999,-999.0,-999.0,49,-99.99,,,-99.99,open2300-1.11,2013-09-23 15:14:00,
2013-09-23 11:20:00,61.7,42.3,29.90,North,-999,-999.0,-999.0,49,-99.99,,,-99.99,open2300-1.11,2013-09-23 15:20:00,
2013-09-23 11:25:00,61.2,42.4,29.91,North,-999,-999.0,-999.0,50,-99.99,,,-99.99,open2300-1.11,2013-09-23 15:25:00,
2013-09-23 11:30:00,61.2,42.4,29.91,North,-999,-999.0,-999.0,50,-99.99,,,-99.99,open2300-1.11,2013-09-23 15:30:00,
2013-09-23 11:35:00,61.0,42.7,29.90,North,-999,-999.0,-999.0,51,-99.99,,,-99.99,open2300-1.11,2013-09-23 15:35:00,
2013-09-23 11:41:00,61.0,42.7,29.90,North,-999,-999.0,-999.0,51,-99.99,,,-99.99,open2300-1.11,2013-09-23 15:41:00,
2013-09-23 11:46:00,61.2,43.4,29.90,North,-999,-999.0,-999.0,52,-99.99,,,-99.99,open2300-1.11,2013-09-23 15:46:00,
2013-09-23 11:51:00,61.3,44.0,29.90,North,-999,-999.0,-999.0,53,-99.99,,,-99.99,open2300-1.11,2013-09-23 15:51:00,
2013-09-23 11:56:00,61.5,44.2,29.90,North,-999,-999.0,-999.0,53,-99.99,,,-99.99,open2300-1.11,2013-09-23 15:56:00,
2013-09-23 12:02:00,61.9,44.0,29.90,North,-999,-999.0,-999.0,52,-99.99,,,-99.99,open2300-1.11,2013-09-23 16:02:00,
2013-09-23 12:07:00,61.9,44.5,29.90,North,-999,-999.0,-999.0,53,-99.99,,,-99.99,open2300-1.11,2013-09-23 16:07:00,
2013-09-23 12:12:00,62.6,45.2,29.90,North,-999,-999.0,-999.0,53,-99.99,,,-99.99,open2300-1.11,2013-09-23 16:12:00,
2013-09-23 12:17:00,63.1,45.2,29.90,North,-999,-999.0,-999.0,52,-99.99,,,-99.99,open2300-1.11,2013-09-23 16:17:00,
2013-09-23 12:23:00,63.0,45.0,29.90,North,-999,-999.0,-999.0,52,-99.99,,,-99.99,open2300-1.11,2013-09-23 16:23:00,
2013-09-23 12:28:00,63.1,45.2,29.90,North,-999,-999.0,-999.0,52,-99.99,,,-99.99,open2300-1.11,2013-09-23 16:28:00,
2013-09-23 12:33:00,63.1,45.2,29.90,North,-999,-999.0,-999.0,52,-99.99,,,-99.99,open2300-1.11,2013-09-23 16:33:00,
2013-09-23 12:38:00,63.3,45.3,29.90,North,-999,-999.0,-999.0,52,-99.99,,,-99.99,open2300-1.11,2013-09-23 16:38:00,
2013-09-23 12:44:00,63.5,45.0,29.90,North,-999,-999.0,-999.0,51,-99.99,,,-99.99,open2300-1.11,2013-09-23 16:44:00,
2013-09-23 12:49:00,63.7,44.7,29.90,North,-999,-999.0,-999.0,50,-99.99,,,-99.99,open2300-1.11,2013-09-23 16:49:00,
2013-09-23 12:54:00,63.9,44.8,29.90,North,-999,-999.0,-999.0,50,-99.99,,,-99.99,open2300-1.11,2013-09-23 16:54:00,
2013-09-23 12:59:00,64.0,45.0,29.90,North,-999,-999.0,-999.0,50,-99.99,,,-99.99,open2300-1.11,2013-09-23 16:59:00,
2013-09-23 13:05:00,64.2,45.2,29.90,North,-999,-999.0,-999.0,50,-99.99,,,-99.99,open2300-1.11,2013-09-23 17:05:00,
2013-09-23 13:10:00,64.8,45.1,29.90,North,-999,-999.0,-999.0,49,-99.99,,,-99.99,open2300-1.11,2013-09-23 17:10:00,
2013-09-23 13:15:00,65.1,46.5,29.89,North,-999,-999.0,-999.0,51,-99.99,,,-99.99,open2300-1.11,2013-09-23 17:15:00,
2013-09-23 13:20:00,65.8,46.8,29.90,North,-999,-999.0,-999.0,50,-99.99,,,-99.99,open2300-1.11,2013-09-23 17:20:00,
2013-09-23 13:26:00,65.5,46.4,29.89,North,-999,-999.0,-999.0,50,-99.99,,,-99.99,open2300-1.11,2013-09-23 17:26:00,
2013-09-23 13:31:00,64.9,45.9,29.90,North,-999,-999.0,-999.0,50,-99.99,,,-99.99,open2300-1.11,2013-09-23 17:31:00,
2013-09-23 13:36:00,64.8,45.7,29.89,North,-999,-999.0,-999.0,50,-99.99,,,-99.99,open2300-1.11,2013-09-23 17:36:00,
2013-09-23 13:42:00,65.8,46.8,29.89,North,-999,-999.0,-999.0,50,-99.99,,,-99.99,open2300-1.11,2013-09-23 17:42:00,
2013-09-23 13:47:00,66.4,46.7,29.89,North,-999,-999.0,-999.0,49,-99.99,,,-99.99,open2300-1.11,2013-09-23 17:47:00,
2013-09-23 13:52:00,66.7,46.4,29.88,North,-999,-999.0,-999.0,48,-99.99,,,-99.99,open2300-1.11,2013-09-23 17:52:00,
2013-09-23 13:57:00,66.0,45.8,29.88,North,-999,-999.0,-999.0,48,-99.99,,,-99.99,open2300-1.11,2013-09-23 17:57:00,
2013-09-23 14:02:00,65.1,44.9,29.88,North,-999,-999.0,-999.0,48,-99.99,,,-99.99,open2300-1.11,2013-09-23 18:02:00,
2013-09-23 14:08:00,64.6,45.5,29.88,North,-999,-999.0,-999.0,50,-99.99,,,-99.99,open2300-1.11,2013-09-23 18:08:00,
2013-09-23 14:13:00,65.8,46.8,29.88,North,-999,-999.0,-999.0,50,-99.99,,,-99.99,open2300-1.11,2013-09-23 18:13:00,
2013-09-23 14:18:00,67.3,47.5,29.88,North,-999,-999.0,-999.0,49,-99.99,,,-99.99,open2300-1.11,2013-09-23 18:18:00,
2013-09-23 14:23:00,67.8,48.0,29.88,North,-999,-999.0,-999.0,49,-99.99,,,-99.99,open2300-1.11,2013-09-23 18:23:00,
2013-09-23 14:29:00,67.8,46.8,29.87,North,-999,-999.0,-999.0,47,-99.99,,,-99.99,open2300-1.11,2013-09-23 18:29:00,
2013-09-23 14:34:00,67.8,47.4,29.87,North,-999,-999.0,-999.0,48,-99.99,,,-99.99,open2300-1.11,2013-09-23 18:34:00,
2013-09-23 14:39:00,68.2,47.7,29.87,North,-999,-999.0,-999.0,48,-99.99,,,-99.99,open2300-1.11,2013-09-23 18:39:00,
2013-09-23 14:44:00,68.2,46.5,29.87,North,-999,-999.0,-999.0,46,-99.99,,,-99.99,open2300-1.11,2013-09-23 18:44:00,
2013-09-23 14:50:00,68.0,46.4,29.87,North,-999,-999.0,-999.0,46,-99.99,,,-99.99,open2300-1.11,2013-09-23 18:50:00,
2013-09-23 14:55:00,68.2,46.5,29.87,North,-999,-999.0,-999.0,46,-99.99,,,-99.99,open2300-1.11,2013-09-23 18:55:00,
2013-09-23 15:00:00,68.4,46.7,29.87,North,-999,-999.0,-999.0,46,-99.99,,,-99.99,open2300-1.11,2013-09-23 19:00:00,
2013-09-23 15:05:00,68.5,47.4,29.87,North,-999,-999.0,-999.0,47,-99.99,,,-99.99,open2300-1.11,2013-09-23 19:05:00,
2013-09-23 15:11:00,68.5,46.8,29.87,North,-999,-999.0,-999.0,46,-99.99,,,-99.99,open2300-1.11,2013-09-23 19:11:00,
2013-09-23 15:16:00,68.5,46.8,29.87,North,-999,-999.0,-999.0,46,-99.99,,,-99.99,open2300-1.11,2013-09-23 19:16:00,
2013-09-23 15:21:00,68.5,47.4,29.87,North,-999,-999.0,-999.0,47,-99.99,,,-99.99,open2300-1.11,2013-09-23 19:21:00,
2013-09-23 15:26:00,68.4,46.7,29.87,North,-999,-999.0,-999.0,46,-99.99,,,-99.99,open2300-1.11,2013-09-23 19:26:00,
2013-09-23 15:32:00,68.2,45.9,29.87,North,-999,-999.0,-999.0,45,-99.99,,,-99.99,open2300-1.11,2013-09-23 19:32:00,
2013-09-23 15:37:00,68.0,46.4,29.87,North,-999,-999.0,-999.0,46,-99.99,,,-99.99,open2300-1.11,2013-09-23 19:37:00,
2013-09-23 15:42:00,68.2,46.5,29.87,North,-999,-999.0,-999.0,46,-99.99,,,-99.99,open2300-1.11,2013-09-23 19:42:00,
2013-09-23 15:48:00,67.8,46.2,29.87,North,-999,-999.0,-999.0,46,-99.99,,,-99.99,open2300-1.11,2013-09-23 19:48:00,
2013-09-23 15:53:00,67.8,46.8,29.87,North,-999,-999.0,-999.0,47,-99.99,,,-99.99,open2300-1.11,2013-09-23 19:53:00,
2013-09-23 15:58:00,67.6,46.6,29.87,North,-999,-999.0,-999.0,47,-99.99,,,-99.99,open2300-1.11,2013-09-23 19:58:00,
2013-09-23 16:03:00,67.3,46.3,29.87,North,-999,-999.0,-999.0,47,-99.99,,,-99.99,open2300-1.11,2013-09-23 20:03:00,
2013-09-23 16:09:00,67.1,46.7,29.87,North,-999,-999.0,-999.0,48,-99.99,,,-99.99,open2300-1.11,2013-09-23 20:09:00,
2013-09-23 16:14:00,67.1,46.2,29.87,North,-999,-999.0,-999.0,47,-99.99,,,-99.99,open2300-1.11,2013-09-23 20:14:00,
2013-09-23 16:19:00,66.9,46.0,29.87,North,-999,-999.0,-999.0,47,-99.99,,,-99.99,open2300-1.11,2013-09-23 20:19:00,
2013-09-23 16:24:00,66.7,46.3,29.87,North,-999,-999.0,-999.0,48,-99.99,,,-99.99,open2300-1.11,2013-09-23 20:24:00,
2013-09-23 16:30:00,66.0,45.8,29.87,North,-999,-999.0,-999.0,48,-99.99,,,-99.99,open2300-1.11,2013-09-23 20:30:00,
2013-09-23 16:35:00,65.8,45.6,29.87,North,-999,-999.0,-999.0,48,-99.99,,,-99.99,open2300-1.11,2013-09-23 20:35:00,
2013-09-23 16:40:00,65.5,45.8,29.87,North,-999,-999.0,-999.0,49,-99.99,,,-99.99,open2300-1.11,2013-09-23 20:40:00,
2013-09-23 16:45:00,65.1,45.5,29.87,North,-999,-999.0,-999.0,49,-99.99,,,-99.99,open2300-1.11,2013-09-23 20:45:00,
2013-09-23 16:51:00,64.8,45.7,29.88,North,-999,-999.0,-999.0,50,-99.99,,,-99.99,open2300-1.11,2013-09-23 20:51:00,
2013-09-23 16:56:00,64.6,44.9,29.88,North,-999,-999.0,-999.0,49,-99.99,,,-99.99,open2300-1.11,2013-09-23 20:56:00,
2013-09-23 17:01:00,64.2,44.6,29.88,North,-999,-999.0,-999.0,49,-99.99,,,-99.99,open2300-1.11,2013-09-23 21:01:00,
2013-09-23 17:06:00,64.0,44.4,29.88,North,-999,-999.0,-999.0,49,-99.99,,,-99.99,open2300-1.11,2013-09-23 21:06:00,
2013-09-23 17:12:00,63.7,44.7,29.88,North,-999,-999.0,-999.0,50,-99.99,,,-99.99,open2300-1.11,2013-09-23 21:12:00,
2013-09-23 17:17:00,63.5,44.5,29.87,North,-999,-999.0,-999.0,50,-99.99,,,-99.99,open2300-1.11,2013-09-23 21:17:00,
2013-09-23 17:22:00,63.3,44.8,29.88,North,-999,-999.0,-999.0,51,-99.99,,,-99.99,open2300-1.11,2013-09-23 21:22:00,
2013-09-23 17:27:00,63.1,44.7,29.88,North,-999,-999.0,-999.0,51,-99.99,,,-99.99,open2300-1.11,2013-09-23 21:27:00,
2013-09-23 17:33:00,63.0,45.0,29.88,North,-999,-999.0,-999.0,52,-99.99,,,-99.99,open2300-1.11,2013-09-23 21:33:00,
2013-09-23 17:38:00,62.8,44.8,29.88,North,-999,-999.0,-999.0,52,-99.99,,,-99.99,open2300-1.11,2013-09-23 21:38:00,
2013-09-23 17:43:00,62.8,44.8,29.88,North,-999,-999.0,-999.0,52,-99.99,,,-99.99,open2300-1.11,2013-09-23 21:43:00,
2013-09-23 17:49:00,62.4,45.0,29.88,North,-999,-999.0,-999.0,53,-99.99,,,-99.99,open2300-1.11,2013-09-23 21:49:00,
2013-09-23 17:54:00,62.4,45.5,29.89,North,-999,-999.0,-999.0,54,-99.99,,,-99.99,open2300-1.11,2013-09-23 21:54:00,
2013-09-23 17:59:00,62.2,45.3,29.89,North,-999,-999.0,-999.0,54,-99.99,,,-99.99,open2300-1.11,2013-09-23 21:59:00,
2013-09-23 18:04:00,62.1,45.2,29.89,North,-999,-999.0,-999.0,54,-99.99,,,-99.99,open2300-1.11,2013-09-23 22:04:00,
2013-09-23 18:10:00,61.5,45.2,29.89,North,-999,-999.0,-999.0,55,-99.99,,,-99.99,open2300-1.11,2013-09-23 22:10:00,
2013-09-23 18:15:00,61.3,45.0,29.89,North,-999,-999.0,-999.0,55,-99.99,,,-99.99,open2300-1.11,2013-09-23 22:15:00,
2013-09-23 18:20:00,61.0,45.2,29.90,North,-999,-999.0,-999.0,56,-99.99,,,-99.99,open2300-1.11,2013-09-23 22:20:00,
2013-09-23 18:25:00,60.6,44.8,29.90,North,-999,-999.0,-999.0,56,-99.99,,,-99.99,open2300-1.11,2013-09-23 22:25:00,
2013-09-23 18:30:00,60.1,44.3,29.90,North,-999,-999.0,-999.0,56,-99.99,,,-99.99,open2300-1.11,2013-09-23 22:30:00,
2013-09-23 18:36:00,59.5,43.8,29.90,North,-999,-999.0,-999.0,56,-99.99,,,-99.99,open2300-1.11,2013-09-23 22:36:00,
2013-09-23 18:41:00,59.0,43.7,29.90,North,-999,-999.0,-999.0,57,-99.99,,,-99.99,open2300-1.11,2013-09-23 22:41:00,
2013-09-23 18:48:00,58.8,44.0,29.90,North,-999,-999.0,-999.0,58,-99.99,,,-99.99,open2300-1.11,2013-09-23 22:48:00,
2013-09-23 18:53:00,57.9,43.2,29.90,North,-999,-999.0,-999.0,58,-99.99,,,-99.99,open2300-1.11,2013-09-23 22:53:00,
2013-09-23 18:58:00,57.6,43.4,29.90,North,-999,-999.0,-999.0,59,-99.99,,,-99.99,open2300-1.11,2013-09-23 22:58:00,
2013-09-23 19:03:00,57.0,43.3,29.91,North,-999,-999.0,-999.0,60,-99.99,,,-99.99,open2300-1.11,2013-09-23 23:03:00,
2013-09-23 19:09:00,56.8,43.6,29.91,North,-999,-999.0,-999.0,61,-99.99,,,-99.99,open2300-1.11,2013-09-23 23:09:00,
2013-09-23 19:14:00,56.5,43.2,29.91,North,-999,-999.0,-999.0,61,-99.99,,,-99.99,open2300-1.11,2013-09-23 23:14:00,
2013-09-23 19:19:00,56.3,43.4,29.91,North,-999,-999.0,-999.0,62,-99.99,,,-99.99,open2300-1.11,2013-09-23 23:19:00,
2013-09-23 19:24:00,55.9,43.1,29.91,North,-999,-999.0,-999.0,62,-99.99,,,-99.99,open2300-1.11,2013-09-23 23:24:00,
2013-09-23 19:30:00,55.6,43.1,29.91,North,-999,-999.0,-999.0,63,-99.99,,,-99.99,open2300-1.11,2013-09-23 23:30:00,
2013-09-23 19:35:00,55.2,43.2,29.91,North,-999,-999.0,-999.0,65,-99.99,,,-99.99,open2300-1.11,2013-09-23 23:35:00,
2013-09-23 19:40:00,54.7,43.1,29.90,North,-999,-999.0,-999.0,65,-99.99,,,-99.99,open2300-1.11,2013-09-23 23:40:00,
2013-09-23 19:45:00,54.3,43.2,29.91,North,-999,-999.0,-999.0,66,-99.99,,,-99.99,open2300-1.11,2013-09-23 23:45:00,
2013-09-23 19:51:00,54.0,43.2,29.91,North,-999,-999.0,-999.0,67,-99.99,,,-99.99,open2300-1.11,2013-09-23 23:51:00,
2013-09-23 19:56:00,53.8,43.4,29.91,North,-999,-999.0,-999.0,68,-99.99,,,-99.99,open2300-1.11,2013-09-23 23:56:00,
2013-09-23 20:02:00,53.4,43.5,29.92,North,-999,-999.0,-999.0,69,-99.99,,,-99.99,open2300-1.11,2013-09-24 00:02:00,
2013-09-23 20:07:00,53.4,43.9,29.92,North,-999,-999.0,-999.0,70,-99.99,,,-99.99,open2300-1.11,2013-09-24 00:07:00,
2013-09-23 20:12:00,53.4,43.5,29.92,North,-999,-999.0,-999.0,69,-99.99,,,-99.99,open2300-1.11,2013-09-24 00:12:00,
2013-09-23 20:17:00,53.4,43.5,29.93,North,-999,-999.0,-999.0,69,-99.99,,,-99.99,open2300-1.11,2013-09-24 00:17:00,
2013-09-23 20:23:00,53.4,43.5,29.93,North,-999,-999.0,-999.0,69,-99.99,,,-99.99,open2300-1.11,2013-09-24 00:23:00,
2013-09-23 20:28:00,53.4,43.5,29.93,North,-999,-999.0,-999.0,69,-99.99,,,-99.99,open2300-1.11,2013-09-24 00:28:00,
2013-09-23 20:35:00,53.2,43.5,29.93,North,-999,-999.0,-999.0,69,-99.99,,,-99.99,open2300-1.11,2013-09-24 00:35:00,
2013-09-23 20:40:00,52.9,43.0,29.93,North,-999,-999.0,-999.0,69,-99.99,,,-99.99,open2300-1.11,2013-09-24 00:40:00,
2013-09-23 20:45:00,52.9,43.0,29.93,North,-999,-999.0,-999.0,69,-99.99,,,-99.99,open2300-1.11,2013-09-24 00:45:00,
2013-09-23 20:51:00,52.5,43.1,29.93,North,-999,-999.0,-999.0,70,-99.99,,,-99.99,open2300-1.11,2013-09-24 00:51:00,
2013-09-23 20:56:00,52.3,42.9,29.93,North,-999,-999.0,-999.0,70,-99.99,,,-99.99,open2300-1.11,2013-09-24 00:56:00,
2013-09-23 21:01:00,52.2,42.8,29.93,North,-999,-999.0,-999.0,70,-99.99,,,-99.99,open2300-1.11,2013-09-24 01:01:00,
2013-09-23 21:06:00,52.0,42.6,29.93,North,-999,-999.0,-999.0,70,-99.99,,,-99.99,open2300-1.11,2013-09-24 01:06:00,
2013-09-23 21:12:00,51.4,42.4,29.94,North,-999,-999.0,-999.0,71,-99.99,,,-99.99,open2300-1.11,2013-09-24 01:12:00,
2013-09-23 21:17:00,51.3,42.2,29.93,North,-999,-999.0,-999.0,71,-99.99,,,-99.99,open2300-1.11,2013-09-24 01:17:00,
2013-09-23 21:22:00,50.9,42.2,29.93,North,-999,-999.0,-999.0,72,-99.99,,,-99.99,open2300-1.11,2013-09-24 01:22:00,
2013-09-23 21:27:00,50.7,42.0,29.93,North,-999,-999.0,-999.0,72,-99.99,,,-99.99,open2300-1.11,2013-09-24 01:27:00,
2013-09-23 21:33:00,50.4,42.0,29.93,North,-999,-999.0,-999.0,73,-99.99,,,-99.99,open2300-1.11,2013-09-24 01:33:00,
2013-09-23 21:38:00,50.2,41.8,29.94,North,-999,-999.0,-999.0,73,-99.99,,,-99.99,open2300-1.11,2013-09-24 01:38:00,
2013-09-23 21:43:00,49.8,41.8,29.94,North,-999,-999.0,-999.0,74,-99.99,,,-99.99,open2300-1.11,2013-09-24 01:43:00,
2013-09-23 21:49:00,49.8,41.8,29.94,North,-999,-999.0,-999.0,74,-99.99,,,-99.99,open2300-1.11,2013-09-24 01:49:00,
2013-09-23 21:54:00,49.8,42.2,29.94,North,-999,-999.0,-999.0,75,-99.99,,,-99.99,open2300-1.11,2013-09-24 01:54:00,
2013-09-23 21:59:00,49.6,42.0,29.94,North,-999,-999.0,-999.0,75,-99.99,,,-99.99,open2300-1.11,2013-09-24 01:59:00,
2013-09-23 22:05:00,49.6,42.0,29.94,North,-999,-999.0,-999.0,75,-99.99,,,-99.99,open2300-1.11,2013-09-24 02:05:00,
2013-09-23 22:10:00,49.3,42.0,29.94,North,-999,-999.0,-999.0,76,-99.99,,,-99.99,open2300-1.11,2013-09-24 02:10:00,
2013-09-23 22:15:00,49.3,42.0,29.94,North,-999,-999.0,-999.0,76,-99.99,,,-99.99,open2300-1.11,2013-09-24 02:15:00,
2013-09-23 22:20:00,49.1,41.8,29.94,North,-999,-999.0,-999.0,76,-99.99,,,-99.99,open2300-1.11,2013-09-24 02:20:00,
2013-09-23 22:26:00,49.1,41.8,29.94,North,-999,-999.0,-999.0,76,-99.99,,,-99.99,open2300-1.11,2013-09-24 02:26:00,
2013-09-23 22:31:00,48.9,42.0,29.94,North,-999,-999.0,-999.0,77,-99.99,,,-99.99,open2300-1.11,2013-09-24 02:31:00,
2013-09-23 22:36:00,48.7,41.8,29.94,North,-999,-999.0,-999.0,77,-99.99,,,-99.99,open2300-1.11,2013-09-24 02:36:00,
2013-09-23 22:41:00,48.6,41.6,29.94,North,-999,-999.0,-999.0,77,-99.99,,,-99.99,open2300-1.11,2013-09-24 02:41:00,
2013-09-23 22:48:00,48.4,41.4,29.94,North,-999,-999.0,-999.0,77,-99.99,,,-99.99,open2300-1.11,2013-09-24 02:48:00,
2013-09-23 22:53:00,48.0,41.4,29.94,North,-999,-999.0,-999.0,78,-99.99,,,-99.99,open2300-1.11,2013-09-24 02:53:00,
2013-09-23 22:58:00,47.8,41.6,29.95,North,-999,-999.0,-999.0,79,-99.99,,,-99.99,open2300-1.11,2013-09-24 02:58:00,
2013-09-23 23:03:00,47.3,41.1,29.95,North,-999,-999.0,-999.0,79,-99.99,,,-99.99,open2300-1.11,2013-09-24 03:03:00,
2013-09-23 23:08:00,47.1,41.3,29.94,North,-999,-999.0,-999.0,80,-99.99,,,-99.99,open2300-1.11,2013-09-24 03:08:00,
2013-09-23 23:14:00,46.8,41.0,29.94,North,-999,-999.0,-999.0,80,-99.99,,,-99.99,open2300-1.11,2013-09-24 03:14:00,
2013-09-23 23:19:00,46.6,40.8,29.94,North,-999,-999.0,-999.0,80,-99.99,,,-99.99,open2300-1.11,2013-09-24 03:19:00,
2013-09-23 23:24:00,46.2,40.8,29.94,North,-999,-999.0,-999.0,81,-99.99,,,-99.99,open2300-1.11,2013-09-24 03:24:00,
2013-09-23 23:29:00,46.0,40.6,29.94,North,-999,-999.0,-999.0,81,-99.99,,,-99.99,open2300-1.11,2013-09-24 03:29:00,
2013-09-23 23:35:00,46.0,40.4,29.94,North,-999,-999.0,-999.0,81,-99.99,,,-99.99,open2300-1.11,2013-09-24 03:35:00,
2013-09-23 23:40:00,45.7,40.5,29.94,North,-999,-999.0,-999.0,82,-99.99,,,-99.99,open2300-1.11,2013-09-24 03:40:00,
2013-09-23 23:45:00,45.5,40.3,29.94,North,-999,-999.0,-999.0,82,-99.99,,,-99.99,open2300-1.11,2013-09-24 03:45:00,
2013-09-23 23:51:00,45.3,40.5,29.95,North,-999,-999.0,-999.0,83,-99.99,,,-99.99,open2300-1.11,2013-09-24 03:51:00,
2013-09-23 23:56:00,45.1,40.6,29.94,North,-999,-999.0,-999.0,84,-99.99,,,-99.99,open2300-1.11,2013-09-24 03:56:00,